Notices

What's New in latest Release from April 7th, 2021:

- Updated Glossary, including Speed of Maximum Gust, and Total Hourly Precipitation

- Updated national and regional climate services offices contacts and prices information

- Addition of station inventory lists for 1981-2010, 1971-2000, and 1961-1990 Normals.

If you haven't already, please take our survey and provide feedback about our website: https://eccc.sondage-survey.ca/f/LanguageSelection.aspx?s=442ca660-fcf1-47c0-95a9-59707d6fd709

Hourly Data Report for September 29, 2018

TORONTO CITY
ONTARIO
Current Station Operator: ECCC - MSC

43°40'00.000" N
79°24'00.000" W
112.50 m
6158355
71508
XTO

Download Data

Hourly Data (September 2018)
Hourly Data Report for September 29, 2018
TIME
LST
Temp Definition
°C
Dew Point Definition
°C
Rel Hum Definition
%
Precip. Amount Definition
mm

Wind Dir Definition
10's deg

Wind Spd Definition
km/h
Visibility Definition
km
Stn Press Definition
kPa
Hmdx Definition


Wind Chill Definition


Weather Definition


00:00 11.5 9.4 87 0.4 LegendMM LegendMM   100.68     LegendNANA
01:00 11.8 9.7 87 0.4 LegendMM LegendMM   100.75     LegendNANA
02:00 12.2 8.4 78 0.0 LegendMM LegendMM   100.77     LegendNANA
03:00 11.3 7.5 77 0.0 LegendMM LegendMM   100.78     LegendNANA
04:00 10.7 7.8 82 0.2 LegendMM LegendMM   100.84     LegendNANA
05:00 9.9 7.5 85 0.0 LegendMM LegendMM   100.88     LegendNANA
06:00 9.7 7.0 84 0.0 LegendMM LegendMM   100.92     LegendNANA
07:00 10.0 7.1 82 0.0 LegendMM LegendMM   100.97     LegendNANA
08:00 11.6 7.0 74 0.0 LegendMM LegendMM   101.01     LegendNANA
09:00 12.9 6.1 64 0.0 LegendMM LegendMM   101.04     LegendNANA
10:00 13.7 4.8 55 0.0 LegendMM LegendMM   101.08     LegendNANA
11:00 14.0 3.7 50 0.0 LegendMM LegendMM   101.07     LegendNANA
12:00 15.4 2.4 42 0.2 LegendMM LegendMM   101.09     LegendNANA
13:00 15.6 2.3 41 0.0 LegendMM LegendMM   101.05     LegendNANA
14:00 16.0 0.6 35 0.0 LegendMM LegendMM   101.04     LegendNANA
15:00 16.0 0.0 34 0.0 LegendMM LegendMM   101.06     LegendNANA
16:00 15.6 0.7 36 0.0 LegendMM LegendMM   101.02     LegendNANA
17:00 15.7 0.1 35 0.0 LegendMM LegendMM   101.05     LegendNANA
18:00 14.4 0.2 38 0.0 LegendMM LegendMM   101.10     LegendNANA
19:00 13.5 1.1 43 0.0 LegendMM LegendMM   101.13     LegendNANA
20:00 13.0 2.2 48 0.0 LegendMM LegendMM   101.19     LegendNANA
21:00 12.3 2.7 52 0.0 LegendMM LegendMM   101.20     LegendNANA
22:00 11.8 3.1 55 0.0 LegendMM LegendMM   101.24     LegendNANA
23:00 11.4 3.1 56 0.0 LegendMM LegendMM   101.24     LegendNANA

Notes on Data Quality.

Legend

  • E = Estimated
  • M = Missing
  • NA = Not Available*
  • [empty] = Indicates an unobserved value
Date modified: